EW6077 Weather Reports


Display with metric or nautical units.
time (UTC)temp
F
wind
direction
speed
MPH
gust
MPH
rain 1hr
in
rain 24hr
in
rain mn
in
humidity
%
barometer
mb
20180920194705 40 84 9.0 0.0 0.00 0.00 0.24 90 1017.4
20180920193204 41 80 10.0 0.0 0.00 0.00 0.18 89 1017.2
20180920191701 42 89 8.0 0.0 0.00 0.00 0.12 88 1017.0
20180920190201 43 71 9.0 0.0 0.00 0.00 0.10 87 1016.6
20180920184710 43 73 6.0 0.0 0.00 0.00 0.07 90 1016.3
20180920183202 43 55 6.0 0.0 0.00 0.00 0.05 90 1016.3
20180920181700 43 62 6.0 0.0 0.00 0.00 0.04 90 1016.5
20180920180239 43 78 5.0 0.0 0.00 0.00 0.04 89 1016.8
20180920174701 43 61 7.0 0.0 0.00 0.00 0.02 88 1016.9
20180920173156 44 29 7.0 0.0 0.00 0.00 0.01 86 1016.9
20180920171728 44 65 8.0 0.0 0.00 0.00 0.00 83 1017.2
20180920170152 45 72 8.0 0.0 0.00 0.00 0.00 82 1017.3
20180920164647 45 74 7.0 0.0 0.00 0.00 0.00 81 1017.6
20180920163205 45 61 6.0 0.0 0.00 0.00 0.00 82 1018.2
20180920161641 45 82 6.0 0.0 0.00 0.00 0.00 81 1018.5
20180920160139 44 78 6.0 0.0 0.00 0.00 0.00 82 1018.9
20180920154717 44 86 5.0 0.0 0.00 0.00 0.00 82 1019.0
20180920153138 45 86 5.0 0.0 0.00 0.00 0.00 82 1019.2
20180920151637 44 106 5.0 0.0 0.00 0.00 0.00 82 1019.4
20180920150201 44 102 5.0 0.0 0.00 0.00 0.00 81 1019.6
20180920144637 44 104 6.0 0.0 0.00 0.00 0.00 80 1019.5
20180920143236 44 89 6.0 0.0 0.00 0.00 0.00 79 1018.9
20180920141631 44 86 5.0 0.0 0.00 0.00 0.00 78 1018.8
20180920140146 44 82 7.0 0.0 0.00 0.00 0.00 78 1018.9
20180920134628 44 91 7.0 0.0 0.00 0.00 0.00 78 1018.8
20180920133127 43 71 5.0 0.0 0.00 0.00 0.00 78 1019.0
20180920131630 43 79 6.0 0.0 0.00 0.00 0.00 78 1019.0
20180920130125 43 83 7.0 0.0 0.00 0.00 0.00 78 1018.9
20180920124650 44 84 6.0 0.0 0.00 0.00 0.00 79 1019.0
20180920123212 43 82 5.0 0.0 0.00 0.00 0.00 81 1019.2
20180920121621 43 70 5.0 0.0 0.00 0.00 0.00 82 1019.2
20180920120126 43 78 5.0 0.0 0.00 0.00 0.00 83 1019.2
20180920114902 43 100 5.0 0.0 0.00 0.00 0.00 83 1019.4
20180920113228 42 70 5.0 0.0 0.00 0.00 0.00 84 1019.2
20180920111630 42 76 4.0 0.0 0.00 0.00 0.00 84 1019.4
20180920110112 42 67 4.0 0.0 0.00 0.00 0.00 84 1019.5
20180920104626 42 58 5.0 0.0 0.00 0.00 0.00 84 1019.4
20180920103136 42 86 4.0 0.0 0.00 0.00 0.00 85 1019.7
20180920101610 42 87 4.0 0.0 0.00 0.00 0.00 85 1019.6
20180920100110 42 126 4.0 0.0 0.00 0.00 0.00 85 1020.0
20180920094627 42 94 3.0 0.0 0.00 0.00 0.00 85 1019.8
20180920093115 43 94 1.0 0.0 0.00 0.00 0.00 86 1020.0
20180920091621 42 94 3.0 0.0 0.00 0.00 0.00 86 1019.9
20180920090136 41 72 1.0 0.0 0.00 0.00 0.00 92 1019.8
20180920084603 41 54 2.0 0.0 0.00 0.00 0.00 91 1019.9
20180920083110 42 54 3.0 0.0 0.00 0.00 0.00 87 1020.0
20180920081600 42 52 4.0 0.0 0.00 0.00 0.00 88 1020.0
20180920080104 41 50 3.0 0.0 0.00 0.00 0.00 91 1020.3
20180920074557 40 32 3.0 0.0 0.00 0.00 0.00 92 1020.5
20180920073057 40 34 4.0 0.0 0.00 0.00 0.00 92 1020.4
20180920071614 40 40 4.0 0.0 0.00 0.00 0.00 92 1020.6
20180920070116 39 29 5.0 0.0 0.00 0.00 0.00 92 1020.7
20180920064608 40 21 4.0 0.0 0.00 0.00 0.00 90 1020.9
20180920063126 41 36 3.0 0.0 0.00 0.00 0.00 91 1021.0
20180920061546 40 38 3.0 0.0 0.00 0.00 0.00 93 1021.3
20180920060115 39 104 0.0 0.0 0.00 0.00 0.00 94 1021.3
20180920054558 39 104 0.0 0.0 0.00 0.00 0.03 94 1021.5
20180920053042 39 104 0.0 0.0 0.00 0.00 0.03 93 1021.6
20180920051639 38 104 0.0 0.0 0.00 0.00 0.03 93 1021.5
20180920050044 38 104 0.0 0.0 0.00 0.00 0.03 93 1021.6
20180920044555 37 104 0.0 0.0 0.00 0.00 0.03 92 1021.6
20180920043044 37 104 0.0 0.0 0.00 0.00 0.03 91 1021.8
20180920041543 38 104 0.0 0.0 0.00 0.00 0.03 90 1021.8
20180920040032 39 104 0.0 0.0 0.00 0.00 0.03 89 1021.6
20180920034553 40 104 0.0 0.0 0.00 0.00 0.03 88 1021.6
20180920033101 41 104 0.0 0.0 0.00 0.00 0.03 88 1021.6
20180920031554 42 104 0.0 0.0 0.00 0.00 0.03 85 1021.7
20180920030055 43 104 0.0 0.0 0.00 0.00 0.03 85 1021.8
20180920024529 44 104 0.0 0.0 0.00 0.00 0.03 85 1021.7
20180920023023 44 104 0.0 0.0 0.00 0.00 0.03 85 1021.6
20180920021527 44 104 0.0 0.0 0.00 0.00 0.03 86 1021.5
20180920020023 43 104 0.0 0.0 0.00 0.00 0.03 86 1021.6
20180920014536 43 104 1.0 0.0 0.00 0.00 0.03 84 1021.5
20180920013025 44 104 2.0 0.0 0.00 0.00 0.03 81 1021.4
20180920011553 46 104 2.0 0.0 0.00 0.00 0.03 77 1021.3
20180920010113 47 104 0.0 0.0 0.00 0.00 0.03 75 1021.3
20180920004545 49 104 1.0 0.0 0.00 0.00 0.03 71 1021.1
20180920003021 50 104 1.0 0.0 0.00 0.00 0.03 66 1020.8
20180920001606 51 104 3.0 0.0 0.00 0.00 0.03 65 1020.7
20180920000024 51 93 3.0 0.0 0.00 0.00 0.03 65 1020.6
20180919234538 51 71 3.0 0.0 0.00 0.00 0.03 66 1020.5
20180919233019 51 61 4.0 0.0 0.00 0.00 0.03 62 1020.6
20180919231517 52 57 4.0 0.0 0.00 0.00 0.03 62 1020.5
20180919230021 51 67 3.0 0.0 0.00 0.00 0.03 63 1020.6
20180919224518 51 61 5.0 0.0 0.00 0.00 0.03 62 1020.7
20180919223018 50 68 3.0 0.0 0.00 0.00 0.03 64 1020.7
20180919221517 50 97 4.0 0.0 0.00 0.00 0.03 64 1020.7
20180919220013 50 36 5.0 0.0 0.00 0.00 0.03 64 1020.7
20180919214515 51 56 4.0 0.0 0.00 0.00 0.03 67 1020.7
20180919213010 50 51 5.0 0.0 0.00 0.00 0.03 68 1020.8
20180919211523 49 5 6.0 0.0 0.00 0.00 0.03 70 1021.0
20180919210006 49 32 5.0 0.0 0.00 0.00 0.03 69 1021.3
20180919204502 48 17 5.0 0.0 0.00 0.00 0.03 73 1021.4
20180919203000 48 355 6.0 0.0 0.00 0.00 0.03 72 1021.6
20180919201459 48 349 7.0 0.0 0.00 0.00 0.03 71 1021.8
20180919195957 47 5 7.0 0.0 0.00 0.00 0.03 74 1021.7